Location: Newark
(55.7678°N, 23.6664°E)
Time: 20:15:32
(UTC+00:00)

N. Korean satellite - Pass Details

Date: 01 October 2020
Orbit: 452 x 505 km, 97.2° (Epoch: 28 October)

Event Time Altitude Azimuth Distance (km) Brightness Sun altitude
Rises 02:38:55 0° 31° (NNE) 2,588 11.1 -16.1°
Reaches altitude 10° 02:43:05 10° 78° (ENE) 1,680 10.7 -15.5°
Maximum altitude 02:43:28 10° 84° (E) 1,669 10.6 -15.4°
Drops below altitude 10° 02:43:51 10° 90° (E) 1,675 10.5 -15.4°
Sets 02:47:55 0° 137° (SE) 2,526 10.6 -14.8°
